SCP
0 0 0 0 0 0 0 0 0 0 0 0 0 0 0 -0 0 0 0 0 0 0 0 0 0 0 0 0 0 0 0 0 0 0 0 0 0 0 0 0 0 0 0
0 0 0 0 0 0 0 0 -0 0 0 0 0 0 0 0 0 0 0 0 0 0 0 0 0 -0 -0 0 0 0 0 0 0 0 0 0 0 0 0 0 0 0 0
0 0 0 0 0 0 0 0 -0 0 0 0 0 0 0 0 0 0 0 0 0 0 0 0 0 0 -0 0 0 0 0 0 0 0 0 0 0 0 0 0 0 0 0
0 0 0 0 0 0 0 0 0 0 0 0 -0 0 0 0 0 0 0 0 0 0 0 0 0 0 -0 0 0 0 0 0 0 0 0 0 0 0 0 0 0 0 0
0 0 0 0 0 0 0 0 0 0 0 0 0 0 -0 0 0 0 0 0 0 0 0 0 0 0 0 -0 -0 0 0 0 0 0 0 0 0 0 0 0 0 0 0
0 0 0 0 0 0 0 0 0 0 0 0 0 0 -0 -0 0 0 0 0 0 -0 0 0 0 0 0 0 0 0 0 0 0 0 0 0 0 0 0 0 0 0 0
0 0 0 0 0 0 0 0 0 0 0 0 0 0 0 0 0 0 0 0 0 0 0 0 0 0 0 0 0 0 0 0 0 0 0 0 0 0 0 0 0 0 0
0 0 0 0 0 0 0 0 0 0 0 -0 0 0 0 0 0 0 0 0 0 0 0 0 0 0 0 0 0 0 -0 0 -0 0 0 0 0 0 0 0 0 0 0
0 0 0 0 0 0 0 0 0 0 0 0 0 0 0 0 0 0 0 0 0 0 0 0 0 0 0 0 0 0 0 0 0 0 0 0 0 0 0 0 0 0 0
0 0 0 0 0 0 0 0 0 0 0 0 0 0 0 0 0 0 0 0 0 0 0 0 0 0 0 0 0 0 0 0 0 0 0 0 0 0 0 0 0 0 0
0 0 0 0 0 0 0 0 0 0 0 0 0 0 0 0 0 0 0 0 0 0 0 0 0 0 0 0 0 0 0 0 0 0 0 0 0 0 0 0 0 0 0
0 0 0 0 0 0 0 0 0 0 0 0 0 0 0 0 0 0 0 0 0 0 0 0 0 0 0 0 0 0 0 0 0 0 0 0 0 0 0 0 0 0 0
0 0 0 0 0 0 0 0 0 0 0 0 0 0 0 0 0 0 0 0 0 0 0 0 0 0 0 0 0 0 0 0 0 0 0 0 0 0 0 0 0 0 0
0 0 0 0 0 0 0 0 0 0 0 0 0 0 0 0 0 0 0 0 0 0 0 0 0 0 0 0 0 0 1 1 1 0 0 0 0 0 0 0 0 0 0
0 0 0 0 0 0 0 0 0 0 0 0 0 0 0 0 0 0 0 0 0 0 0 0 0 0 0 0 0 0 0 0 0 0 0 0 0 0 0 0 0 0 0
0 0 0 0 0 0 0 0 0 0 0 0 0 0 0 0 0 0 0 0 0 0 0 0 0 0 0 0 0 0 0 0 0 0 0 0 0 0 0 0 0 0 0
0 0 0 0 0 0 0 0 0 0 0 0 0 0 0 0 0 0 0 0 0 0 0 0 0 0 0 0 0 0 0 0 0 0 0 0 0 0 0 0 0 0 0
0 0 0 0 0 0 0 0 0 0 0 0 0 0 0 0 0 0 0 0 0 0 0 0 0 0 0 0 0 0 0 0 0 0 0 0 0 0 0 0 0 0 0
0 0 0 0 0 0 0 0 0 0 0 0 0 0 0 0 0 0 0 0 0 0 0 0 0 0 0 0 0 0 0 0 0 0 0 0 0 0 0 0 0 0 0
0 0 0 0 0 0 0 0 0 0 0 0 0 0 0 0 0 0 0 0 0 0 0 0 0 0 0 0 0 0 0 0 0 0 0 0 0 0 0 -0 0 0 0
0 0 0 0 0 0 0 0 0 0 0 0 0 0 0 0 0 0 0 0 0 0 0 0 0 0 0 0 0 0 0 0 0 0 0 0 0 0 0 -0 0 0 0
0 0 0 0 0 0 0 0 0 0 0 0 0 0 0 0 0 0 0 0 0 0 0 0 0 0 0 0 0 0 0 0 0 0 0 0 0 -0 0 0 0 0 0
0 0 0 0 0 0 0 0 0 0 0 0 0 0 0 0 0 0 0 0 0 0 0 0 0 0 0 0 0 0 -0 0 0 0 0 0 0 0 0 0 -0 0 0
0 0 0 0 0 0 0 0 0 0 0 0 0 0 0 0 0 0 0 0 0 0 0 0 0 0 0 0 0 0 0 0 0 0 0 -0 0 -0 -0 0 0 0 0
0 0 0 0 0 0 0 0 0 0 0 0 0 0 0 0 0 0 0 0 0 0 0 0 0 0 0 0 0 0 0 -0 -0 -0 -0 -0 0 -0 -0 -0 0 -0 0
0 0 0 0 0 0 0 0 0 0 0 0 0 0 0 0 0 0 0 0 0 0 0 0 0 0 0 0 0 0 0 -0 -0 -0 -0 -0 0 -0 -0 -0 0 -0 -0
Wind_Speed_500mb
5 13 19 21 29 14 23 21 21 19 21 18 14 28 12 19 3 14 18 17 16 12 10 11 17 21 24 27 29 27 26 24 24 27 30 33 34 36 36 36 38 41 43
17 16 10 24 29 18 17 26 18 15 19 12 11 18 19 11 3 7 8 12 9 12 10 14 25 23 32 35 31 26 26 26 25 25 26 29 31 34 35 36 39 40 40
21 12 12 25 29 17 17 28 23 9 17 5 6 5 10 8 3 13 16 13 9 12 19 29 29 28 35 37 26 25 26 26 27 27 26 26 29 30 31 32 31 40 42
19 16 16 22 24 16 27 36 21 12 18 28 3 12 9 5 2 7 9 14 15 21 21 22 31 35 34 42 24 29 29 26 26 29 29 29 28 29 29 30 32 33 35
16 20 12 20 24 20 28 29 19 13 21 30 17 11 5 17 14 10 13 19 27 22 20 27 38 34 36 27 34 31 31 29 26 27 30 30 27 26 24 27 29 31 32
11 24 12 11 16 24 26 31 33 10 22 23 35 14 9 11 10 17 17 15 16 9 14 24 31 31 29 34 36 37 35 32 29 26 27 32 30 27 26 27 26 26 26
17 24 15 18 17 25 18 26 28 7 10 18 28 28 9 7 5 20 18 22 23 23 28 27 30 27 28 29 32 34 33 37 34 34 35 32 31 31 30 31 28 28 28
18 9 14 21 19 6 19 23 26 29 5 12 25 21 20 2 9 28 24 19 29 30 36 40 42 33 36 37 39 39 36 35 38 38 31 33 32 33 35 36 37 36 33
17 16 17 15 21 14 12 14 20 31 20 4 8 18 13 11 44 37 33 31 31 32 31 33 43 40 33 42 36 39 41 42 39 40 39 38 41 46 45 41 41 44 43
14 18 12 13 24 20 11 14 22 25 24 25 16 8 20 31 40 44 45 52 43 41 43 52 46 44 43 51 45 49 44 47 47 45 45 44 39 37 45 48 43 38 39
16 15 14 18 30 20 13 17 23 27 30 33 34 38 37 37 35 44 59 64 59 52 49 48 46 44 48 43 45 53 51 49 51 55 55 51 49 45 42 49 49 45 42
9 9 11 25 33 19 19 22 26 31 34 37 40 42 44 47 50 52 58 65 64 65 58 53 46 44 40 53 59 54 58 62 63 66 67 59 55 52 45 44 52 50 50
8 12 17 28 20 21 24 27 32 37 37 42 45 47 43 45 45 45 48 54 56 64 60 54 45 45 46 44 54 60 56 52 57 58 66 67 63 59 54 50 49 53 51
11 17 23 25 32 29 30 32 37 43 40 42 37 34 34 33 29 34 38 38 54 59 64 59 51 52 54 50 55 55 65 63 61 60 55 59 67 67 63 58 53 50 52
10 18 22 27 24 29 33 36 41 38 34 27 29 29 30 29 27 31 33 35 39 43 55 62 65 66 49 56 54 60 61 68 72 62 56 55 59 68 76 73 69 59 51
18 18 20 21 29 32 30 34 32 27 27 26 25 22 22 25 30 32 41 41 46 51 45 69 70 70 70 65 59 60 63 63 62 63 63 62 61 64 71 69 69 68 56
23 20 23 28 31 28 35 34 37 27 33 30 28 33 37 42 43 41 40 46 41 51 60 69 70 63 58 55 56 57 59 69 74 58 61 59 58 57 65 67 73 78 72
17 18 26 28 32 36 38 34 35 42 33 31 34 40 40 37 38 40 47 45 52 59 56 62 63 59 64 60 61 57 55 57 55 50 51 52 52 50 56 65 65 65 68
11 18 26 31 39 39 33 39 39 32 30 26 27 35 40 36 39 46 46 49 59 60 49 54 67 64 69 68 66 60 58 65 57 53 50 46 48 50 47 55 67 75 70
19 26 30 35 33 36 41 34 29 29 29 23 18 32 41 36 41 47 47 61 67 63 52 57 66 71 68 70 64 69 69 65 65 54 49 44 46 46 48 55 55 55 61
25 23 33 40 40 38 27 28 31 34 34 27 18 28 41 36 42 47 49 64 67 57 52 59 68 75 69 78 71 73 71 69 70 62 50 42 35 38 48 48 49 50 53
29 32 28 28 37 30 27 34 38 38 39 27 29 31 40 29 44 45 55 58 65 56 52 53 67 66 65 80 70 67 65 64 67 60 56 56 46 54 47 43 40 51 57
35 32 22 28 29 32 34 32 33 39 43 37 34 37 30 31 35 46 53 63 69 54 42 58 64 62 70 69 74 79 70 63 65 58 54 59 46 43 44 40 41 48 45
32 25 21 20 26 32 34 33 35 45 49 48 39 31 24 35 41 42 56 60 54 47 50 59 52 59 60 63 74 77 71 60 57 53 43 56 48 43 41 30 33 49 44
26 22 14 19 28 36 37 35 40 46 53 55 44 32 32 32 37 46 59 55 48 48 54 60 61 67 60 61 73 78 54 49 58 57 39 43 42 41 42 21 35 52 45
24 16 22 26 33 28 30 36 41 46 57 60 52 37 32 31 39 50 51 51 51 52 54 61 72 81 59 56 73 68 50 43 42 46 39 46 42 41 24 8 47 43 39
Wind_Direction_500mb
65 62 20 347 354 33 21 360 5 8 15 11 354 5 356 226 186 329 327 325 334 345 356 9 353 338 330 323 311 294 285 278 275 271 267 260 254 250 249 251 257 258 256
57 66 28 351 4 35 12 338 336 4 16 3 38 7 38 39 9 331 318 334 314 337 331 335 335 334 330 326 317 308 296 287 277 271 267 265 259 254 253 249 244 249 248
39 42 359 341 358 18 360 332 336 19 22 357 56 38 344 17 227 308 293 287 353 321 326 318 307 320 322 331 325 321 312 296 282 278 273 269 263 261 259 255 247 240 243
3 19 353 349 4 352 338 342 346 35 28 13 343 334 29 231 268 325 322 314 320 319 318 307 317 318 316 321 318 319 316 315 287 281 279 274 268 263 255 258 257 257 249
320 318 359 344 358 351 341 4 15 50 17 15 360 20 295 318 300 273 287 277 287 284 302 300 310 313 315 323 299 299 306 308 308 286 282 280 275 266 255 251 260 259 260
290 308 312 338 345 334 341 351 5 66 29 6 359 344 250 277 334 8 341 359 319 313 302 295 296 305 300 305 300 293 295 294 299 300 299 290 278 270 266 260 257 256 258
275 296 335 312 313 330 344 351 7 21 45 14 3 32 12 237 311 331 335 315 330 332 329 324 324 309 320 304 330 338 290 283 292 288 293 292 282 272 269 267 263 262 263
332 297 289 319 331 327 344 1 343 4 29 25 7 1 2 232 229 330 345 337 314 321 303 307 314 312 303 303 318 323 327 306 280 269 274 289 287 280 274 270 266 266 266
336 314 294 318 326 333 318 332 326 338 341 8 24 15 346 320 321 326 325 320 310 306 317 314 314 298 298 306 303 308 313 302 301 285 274 273 288 280 277 268 266 265 262
350 353 9 326 322 323 287 312 326 325 334 351 347 304 312 307 320 317 310 312 313 306 298 301 296 297 300 300 296 300 300 291 285 283 287 277 271 279 284 268 263 260 265
349 327 342 336 342 335 335 334 324 326 335 331 328 325 318 316 306 307 309 312 313 313 315 313 305 300 295 293 297 294 291 286 285 278 272 275 275 275 282 272 262 256 263
309 287 286 323 329 323 332 329 325 319 321 317 315 314 314 313 312 309 306 309 313 318 317 318 313 307 295 289 293 293 288 288 279 277 277 274 266 271 275 276 266 260 258
343 333 311 324 335 341 338 334 324 321 317 315 315 315 315 313 313 311 311 314 318 320 322 324 326 320 311 303 300 299 300 295 293 288 275 269 268 265 266 271 270 261 256
309 300 300 318 337 340 341 325 309 307 317 317 322 320 327 331 332 340 329 328 324 323 319 321 321 319 319 309 312 301 301 299 301 295 284 273 269 266 257 262 263 264 257
290 295 305 313 330 326 313 313 317 324 324 333 329 328 332 331 333 331 328 326 323 321 314 316 318 315 311 309 307 294 294 300 298 289 283 280 281 266 261 264 260 255 258
300 314 327 332 325 305 312 311 312 329 331 332 325 320 321 315 316 311 306 308 307 316 319 309 310 309 309 305 296 292 296 295 297 295 287 285 281 275 263 264 253 255 252
305 313 319 312 300 305 307 309 315 307 309 300 306 305 307 310 308 306 314 320 323 320 314 312 315 319 320 317 307 301 294 295 297 292 288 283 281 276 267 262 255 253 254
289 309 294 298 297 303 305 300 303 307 305 298 301 305 311 312 312 318 327 333 334 334 328 328 327 329 328 323 320 312 307 303 302 297 297 287 279 278 267 264 255 254 254
295 300 293 293 299 293 292 303 309 314 315 304 304 311 315 316 316 324 337 340 339 338 337 334 331 330 328 330 326 324 318 317 307 306 303 284 282 281 279 275 259 260 252
294 293 293 290 290 293 301 307 321 328 329 316 307 311 320 316 322 325 326 335 339 339 335 335 334 333 331 331 331 330 323 319 319 312 305 298 290 283 289 278 261 265 231
290 287 279 286 289 300 307 321 333 338 334 323 305 315 324 319 319 319 317 330 335 337 333 330 332 332 334 338 331 327 321 319 315 322 323 320 294 283 300 285 258 259 215
285 281 277 281 292 308 320 329 338 340 340 326 315 316 320 313 310 306 312 324 332 331 326 328 332 328 327 336 332 328 322 321 313 318 317 311 300 288 290 286 269 244 212
294 297 278 267 282 299 312 323 340 340 344 323 312 314 310 305 305 302 312 322 327 324 328 329 326 328 327 327 330 326 317 310 310 309 319 314 312 303 304 272 272 215 194
302 304 287 272 291 308 319 326 333 338 339 340 331 317 297 309 302 305 328 335 338 336 336 340 330 326 324 318 326 326 314 302 304 308 317 309 313 314 314 272 236 188 201
296 305 298 290 296 309 315 314 316 325 335 338 335 318 295 317 307 318 328 331 342 342 337 337 332 331 316 313 326 333 319 313 302 299 321 312 313 311 315 270 217 208 218
290 278 276 293 297 300 305 299 301 319 328 330 333 331 307 301 309 315 316 319 326 336 326 323 333 333 331 331 335 336 329 311 306 309 311 301 302 308 308 264 190 211 221
Wind_Speed_850mb
5 13 19 21 29 14 23 21 21 19 21 18 14 28 12 19 3 14 18 17 16 12 10 11 17 21 24 27 29 27 26 24 24 27 30 33 34 36 36 36 38 41 43
17 16 10 24 29 18 17 26 18 15 19 12 11 18 19 11 3 7 8 12 9 12 10 14 25 23 32 35 31 26 26 26 25 25 26 29 31 34 35 36 39 40 40
21 12 12 25 29 17 17 28 23 9 17 5 6 5 10 8 3 13 16 13 9 12 19 29 29 28 35 37 26 25 26 26 27 27 26 26 29 30 31 32 31 40 42
19 16 16 22 24 16 27 36 21 12 18 28 3 12 9 5 2 7 9 14 15 21 21 22 31 35 34 42 24 29 29 26 26 29 29 29 28 29 29 30 32 33 35
16 20 12 20 24 20 28 29 19 13 21 30 17 11 5 17 14 10 13 19 27 22 20 27 38 34 36 27 34 31 31 29 26 27 30 30 27 26 24 27 29 31 32
11 24 12 11 16 24 26 31 33 10 22 23 35 14 9 11 10 17 17 15 16 9 14 24 31 31 29 34 36 37 35 32 29 26 27 32 30 27 26 27 26 26 26
17 24 15 18 17 25 18 26 28 7 10 18 28 28 9 7 5 20 18 22 23 23 28 27 30 27 28 29 32 34 33 37 34 34 35 32 31 31 30 31 28 28 28
18 9 14 21 19 6 19 23 26 29 5 12 25 21 20 2 9 28 24 19 29 30 36 40 42 33 36 37 39 39 36 35 38 38 31 33 32 33 35 36 37 36 33
17 16 17 15 21 14 12 14 20 31 20 4 8 18 13 11 44 37 33 31 31 32 31 33 43 40 33 42 36 39 41 42 39 40 39 38 41 46 45 41 41 44 43
14 18 12 13 24 20 11 14 22 25 24 25 16 8 20 31 40 44 45 52 43 41 43 52 46 44 43 51 45 49 44 47 47 45 45 44 39 37 45 48 43 38 39
16 15 14 18 30 20 13 17 23 27 30 33 34 38 37 37 35 44 59 64 59 52 49 48 46 44 48 43 45 53 51 49 51 55 55 51 49 45 42 49 49 45 42
9 9 11 25 33 19 19 22 26 31 34 37 40 42 44 47 50 52 58 65 64 65 58 53 46 44 40 53 59 54 58 62 63 66 67 59 55 52 45 44 52 50 50
8 12 17 28 20 21 24 27 32 37 37 42 45 47 43 45 45 45 48 54 56 64 60 54 45 45 46 44 54 60 56 52 57 58 66 67 63 59 54 50 49 53 51
11 17 23 25 32 29 30 32 37 43 40 42 37 34 34 33 29 34 38 38 54 59 64 59 51 52 54 50 55 55 65 63 61 60 55 59 67 67 63 58 53 50 52
10 18 22 27 24 29 33 36 41 38 34 27 29 29 30 29 27 31 33 35 39 43 55 62 65 66 49 56 54 60 61 68 72 62 56 55 59 68 76 73 69 59 51
18 18 20 21 29 32 30 34 32 27 27 26 25 22 22 25 30 32 41 41 46 51 45 69 70 70 70 65 59 60 63 63 62 63 63 62 61 64 71 69 69 68 56
23 20 23 28 31 28 35 34 37 27 33 30 28 33 37 42 43 41 40 46 41 51 60 69 70 63 58 55 56 57 59 69 74 58 61 59 58 57 65 67 73 78 72
17 18 26 28 32 36 38 34 35 42 33 31 34 40 40 37 38 40 47 45 52 59 56 62 63 59 64 60 61 57 55 57 55 50 51 52 52 50 56 65 65 65 68
11 18 26 31 39 39 33 39 39 32 30 26 27 35 40 36 39 46 46 49 59 60 49 54 67 64 69 68 66 60 58 65 57 53 50 46 48 50 47 55 67 75 70
19 26 30 35 33 36 41 34 29 29 29 23 18 32 41 36 41 47 47 61 67 63 52 57 66 71 68 70 64 69 69 65 65 54 49 44 46 46 48 55 55 55 61
25 23 33 40 40 38 27 28 31 34 34 27 18 28 41 36 42 47 49 64 67 57 52 59 68 75 69 78 71 73 71 69 70 62 50 42 35 38 48 48 49 50 53
29 32 28 28 37 30 27 34 38 38 39 27 29 31 40 29 44 45 55 58 65 56 52 53 67 66 65 80 70 67 65 64 67 60 56 56 46 54 47 43 40 51 57
35 32 22 28 29 32 34 32 33 39 43 37 34 37 30 31 35 46 53 63 69 54 42 58 64 62 70 69 74 79 70 63 65 58 54 59 46 43 44 40 41 48 45
32 25 21 20 26 32 34 33 35 45 49 48 39 31 24 35 41 42 56 60 54 47 50 59 52 59 60 63 74 77 71 60 57 53 43 56 48 43 41 30 33 49 44
26 22 14 19 28 36 37 35 40 46 53 55 44 32 32 32 37 46 59 55 48 48 54 60 61 67 60 61 73 78 54 49 58 57 39 43 42 41 42 21 35 52 45
24 16 22 26 33 28 30 36 41 46 57 60 52 37 32 31 39 50 51 51 51 52 54 61 72 81 59 56 73 68 50 43 42 46 39 46 42 41 24 8 47 43 39
Wind_Direction_850mb
65 62 20 347 354 33 21 360 5 8 15 11 354 5 356 226 186 329 327 325 334 345 356 9 353 338 330 323 311 294 285 278 275 271 267 260 254 250 249 251 257 258 256
57 66 28 351 4 35 12 338 336 4 16 3 38 7 38 39 9 331 318 334 314 337 331 335 335 334 330 326 317 308 296 287 277 271 267 265 259 254 253 249 244 249 248
39 42 359 341 358 18 360 332 336 19 22 357 56 38 344 17 227 308 293 287 353 321 326 318 307 320 322 331 325 321 312 296 282 278 273 269 263 261 259 255 247 240 243
3 19 353 349 4 352 338 342 346 35 28 13 343 334 29 231 268 325 322 314 320 319 318 307 317 318 316 321 318 319 316 315 287 281 279 274 268 263 255 258 257 257 249
320 318 359 344 358 351 341 4 15 50 17 15 360 20 295 318 300 273 287 277 287 284 302 300 310 313 315 323 299 299 306 308 308 286 282 280 275 266 255 251 260 259 260
290 308 312 338 345 334 341 351 5 66 29 6 359 344 250 277 334 8 341 359 319 313 302 295 296 305 300 305 300 293 295 294 299 300 299 290 278 270 266 260 257 256 258
275 296 335 312 313 330 344 351 7 21 45 14 3 32 12 237 311 331 335 315 330 332 329 324 324 309 320 304 330 338 290 283 292 288 293 292 282 272 269 267 263 262 263
332 297 289 319 331 327 344 1 343 4 29 25 7 1 2 232 229 330 345 337 314 321 303 307 314 312 303 303 318 323 327 306 280 269 274 289 287 280 274 270 266 266 266
336 314 294 318 326 333 318 332 326 338 341 8 24 15 346 320 321 326 325 320 310 306 317 314 314 298 298 306 303 308 313 302 301 285 274 273 288 280 277 268 266 265 262
350 353 9 326 322 323 287 312 326 325 334 351 347 304 312 307 320 317 310 312 313 306 298 301 296 297 300 300 296 300 300 291 285 283 287 277 271 279 284 268 263 260 265
349 327 342 336 342 335 335 334 324 326 335 331 328 325 318 316 306 307 309 312 313 313 315 313 305 300 295 293 297 294 291 286 285 278 272 275 275 275 282 272 262 256 263
309 287 286 323 329 323 332 329 325 319 321 317 315 314 314 313 312 309 306 309 313 318 317 318 313 307 295 289 293 293 288 288 279 277 277 274 266 271 275 276 266 260 258
343 333 311 324 335 341 338 334 324 321 317 315 315 315 315 313 313 311 311 314 318 320 322 324 326 320 311 303 300 299 300 295 293 288 275 269 268 265 266 271 270 261 256
309 300 300 318 337 340 341 325 309 307 317 317 322 320 327 331 332 340 329 328 324 323 319 321 321 319 319 309 312 301 301 299 301 295 284 273 269 266 257 262 263 264 257
290 295 305 313 330 326 313 313 317 324 324 333 329 328 332 331 333 331 328 326 323 321 314 316 318 315 311 309 307 294 294 300 298 289 283 280 281 266 261 264 260 255 258
300 314 327 332 325 305 312 311 312 329 331 332 325 320 321 315 316 311 306 308 307 316 319 309 310 309 309 305 296 292 296 295 297 295 287 285 281 275 263 264 253 255 252
305 313 319 312 300 305 307 309 315 307 309 300 306 305 307 310 308 306 314 320 323 320 314 312 315 319 320 317 307 301 294 295 297 292 288 283 281 276 267 262 255 253 254
289 309 294 298 297 303 305 300 303 307 305 298 301 305 311 312 312 318 327 333 334 334 328 328 327 329 328 323 320 312 307 303 302 297 297 287 279 278 267 264 255 254 254
295 300 293 293 299 293 292 303 309 314 315 304 304 311 315 316 316 324 337 340 339 338 337 334 331 330 328 330 326 324 318 317 307 306 303 284 282 281 279 275 259 260 252
294 293 293 290 290 293 301 307 321 328 329 316 307 311 320 316 322 325 326 335 339 339 335 335 334 333 331 331 331 330 323 319 319 312 305 298 290 283 289 278 261 265 231
290 287 279 286 289 300 307 321 333 338 334 323 305 315 324 319 319 319 317 330 335 337 333 330 332 332 334 338 331 327 321 319 315 322 323 320 294 283 300 285 258 259 215
285 281 277 281 292 308 320 329 338 340 340 326 315 316 320 313 310 306 312 324 332 331 326 328 332 328 327 336 332 328 322 321 313 318 317 311 300 288 290 286 269 244 212
294 297 278 267 282 299 312 323 340 340 344 323 312 314 310 305 305 302 312 322 327 324 328 329 326 328 327 327 330 326 317 310 310 309 319 314 312 303 304 272 272 215 194
302 304 287 272 291 308 319 326 333 338 339 340 331 317 297 309 302 305 328 335 338 336 336 340 330 326 324 318 326 326 314 302 304 308 317 309 313 314 314 272 236 188 201
296 305 298 290 296 309 315 314 316 325 335 338 335 318 295 317 307 318 328 331 342 342 337 337 332 331 316 313 326 333 319 313 302 299 321 312 313 311 315 270 217 208 218
290 278 276 293 297 300 305 299 301 319 328 330 333 331 307 301 309 315 316 319 326 336 326 323 333 333 331 331 335 336 329 311 306 309 311 301 302 308 308 264 190 211 221